Regional Weather Roundup
Issued by NWS

Home | Current Version | Previous Version | Text Only | Print | Product List | Glossary On
Versions: 1 2 3 4 5 6 7 8 9 10 11 12 13 14 15 16 17 18 19 20 21 22 23 24 25 26 27 28 29 30 31 32 33 34 35 36 37 38 39 40 41 42 43 44 45 46 47 48 49 50
228
ASUS45 KBOU 221210
RWRCO

WEATHER ROUNDUP FOR COLORADO
NATIONAL WEATHER SERVICE DENVER/BOULDER CO
600 AM MDT SUN SEP 22 2019

NOTE: "FAIR" INDICATES FEW OR NO CLOUDS BELOW 12000 FEET WITH NO
SIGNIFICANT WEATHER AND/OR OBSTRUCTIONS TO VISIBILITY.

COZ001>005-013-030-031-221300-
...NORTHWEST COLORADO...

CITY           SKY/WX    TMP DP  RH WIND       PRES   REMARKS
CRAIG          FAIR      26  22  84 CALM      30.22R
HAYDEN         FAIR      33  24  69 E6        30.23R WCI  28
MEEKER         FAIR      32  24  72 SE5       30.22R WCI  27
RANGELY        FAIR      35  26  70 CALM      30.20R
RABBIT EARS PA FAIR      28  27  93 MISG      30.28S
STEAMBOAT SPGS FAIR      28  25  89 CALM      30.23S
WALDEN         NOT AVBL
$$

COZ006>008-011-221300-
...WEST CENTRAL VALLEYS...

CITY           SKY/WX    TMP DP  RH WIND       PRES   REMARKS
GRAND JUNCTION FAIR      46  23  40 SE9       30.15R
MONTROSE       FAIR      39  25  57 SE7       30.20S
EAGLE          FAIR      31  22  69 E5        30.25R WCI  26
RIFLE          FAIR      36  23  59 CALM      30.20R
DELTA          FAIR      42  24  49 NE7       30.19R
NUCLA          FAIR      41  21  45 SE9       30.23R
$$

COZ017>023-064>068-221300-
...SOUTHWEST COLORADO...

CITY           SKY/WX    TMP DP  RH WIND       PRES   REMARKS
DURANGO        FAIR      32  26  78 NE6       30.21R WCI  26
CORTEZ         FAIR      32  19  58 E3        30.19R
PAGOSA SPRINGS FAIR      32  24  71 CALM      30.26R
TELLURIDE      FAIR      34  21  60 SE6       30.34R WCI  29
WOLF CREEK PAS FAIR      32  10  40 SW7       30.45R WCI  26
$$

COZ009-010-012-014-032>034-037-058>063-221300-
...CENTRAL COLORADO...

CITY           SKY/WX    TMP DP  RH WIND       PRES   REMARKS
ASPEN          FAIR      32  20  61 SW9       30.24R WCI  24
BUENA VISTA    FAIR      34  19  53 W6        30.23R WCI  29
COPPER MTN     FAIR      32  19  59 W10G17    30.35R WCI  24
BERTHOUD PASS  FAIR      25   9  50 W24G39    30.32R WCI   9
COTTONWOOD PAS FAIR      43  10  26 CALM      30.29R
GUNNISON       FAIR      28  19  69 CALM      30.29R
GRANBY         FAIR      29  21  74 CALM      30.25R
KREMMLING      FAIR      27  23  86 CALM      30.25R
LEADVILLE      FAIR      32  16  51 N8        30.28R WCI  25
MONARCH PASS   FAIR      28  18  64 MISG      30.44R
SALIDA         FAIR      49  19  30 SW14G21   30.29R
SUNLIGHT       NOT AVBL
WILKERSON PASS FAIR      32  21  64 SW12G18   30.33S WCI  23
$$

COZ069>075-221300-
...SAN LUIS VALLEY/SANGRE DE CRISTO MOUNTAINS...

CITY           SKY/WX    TMP DP  RH WIND       PRES   REMARKS
ALAMOSA        FAIR      28  22  78 CALM      30.23R
DEL NORTE      FAIR      36  17  46 W14       30.25R
LA VETA PASS   FAIR      36  21  55 SW7       30.29S
SAGUACHE       FAIR      36  19  51 CALM      30.26R
$$

COZ035-036-038>040-221300-
...NORTHERN COLORADO FRONT RANGE...

CITY           SKY/WX    TMP DP  RH WIND       PRES   REMARKS
DENVER INTL AP FAIR      41  39  93 S7        30.11S
AURORA         PTCLDY    44  40  87 S9        30.12S
FRONT RANGE AP FAIR      43  41  91 S8        30.12F
ERIE MUNI ARPT FAIR      41  38  91 CALM      30.16R
BOULDER MUN AP FAIR      46  36  66 CALM      30.11R
CENTENNIAL     FAIR      45  38  76 S9        30.13R
BROOMFIELD     CLEAR     45  41  87 W6        30.12S
FORT COLLINS   FAIR      42  39  89 CALM      30.11S
LONGMONT       FAIR      41  36  80 CALM      30.13R
$$

COZ041-046-047-076>085-087-088-221300-
...PIKES PEAK/PALMER DIVIDE AND SOUTHERN FOOTHILLS...

CITY           SKY/WX    TMP DP  RH WIND       PRES   REMARKS
COLO. SPRINGS  FAIR      45  35  68 S8        30.19R
A. F. ACADEMY  FAIR      36  32  84 CALM      30.16R
SCHRIEVER AFB  NOT AVBL
CHEYENNE MTN   FAIR      48  32  54 S5        30.14R
ELLICOTT       FAIR      39  38  94 CALM      30.20R
FALCON         FAIR      38  34  85 W5        30.20R
FORT CARSON    FAIR      47  35  64 S8        30.16R
LIMON          FAIR      39  39 100 CALM      30.15R
MONUMENT HILL  FAIR      34  32  93 S7        30.19S WCI  28
CANON CITY     NOT AVBL
WALSENBURG     NOT AVBL
TRINIDAD       FAIR      42  35  76 NW3       30.18R
$$

COZ042>045-048>051-090-091-221300-
...NORTHEAST COLORADO...

CITY           SKY/WX    TMP DP  RH WIND       PRES   REMARKS
GREELEY ARPT   FAIR      42  41  96 N3        30.11R
AKRON          FAIR      45  43  93 SW7       30.10R
BURLINGTON     FAIR      47  43  86 N5        30.07R
WRAY           MOCLDY    46  46 100 SW5       30.06S
YUMA           PTSUNNY   45  43  93 SW6       30.08R
STERLING       NOT AVBL
HOLYOKE        NOT AVBL
FORT MORGAN    FAIR      44  42  93 S7        30.11R
$$

COZ086-089-092>099-221300-
...SOUTHEAST COLORADO...

CITY           SKY/WX    TMP DP  RH WIND       PRES   REMARKS
PUEBLO         FAIR      46  35  65 CALM      30.15R
LA JUNTA       FAIR      48  39  71 W6        30.13R
LAMAR          FAIR      49  43  80 W6        30.07R
SPRINGFIELD      N/A     50  42  74 NW13G22   30.08R
$$




USA.gov is the U.S. government's official web portal to all federal, state and local government web resources and services.